Regional Weather Roundup
Issued by NWS

Home | Current Version | Previous Version | Graphics & Text | Print | Product List | Glossary On
Versions: 1 2 3 4 5 6 7 8 9 10 11 12 13 14 15 16 17 18 19 20 21 22 23 24 25 26 27
000
ASUS43 KDMX 160007
RWRIA

WEATHER ROUNDUP FOR IOWA
NATIONAL WEATHER SERVICE DES MOINES IA
700 PM CDT TUE APR 15 2014

NOTE: "FAIR" INDICATES FEW OR NO CLOUDS BELOW 12,000 FEET WITH NO
SIGNIFICANT WEATHER AND/OR OBSTRUCTIONS TO VISIBILITY.

* - THESE STATIONS ARE NOT NWS STATIONS...THUS NOT UNDER NWS
QUALITY CONTROL.  THEY ALSO DO NOT REPORT WEATHER SUCH
AS PRECIPITATION OR FOG.

IAZ001>003-012>014-020>022-031>034-043>046-160100-
   NORTHWEST IOWA

CITY           SKY/WX    TMP DP  RH WIND       PRES   REMARKS
CARROLL *      PTSUNNY   46  27  46 S15       29.97F
CHEROKEE *     SUNNY     45  27  49 SE13      29.92F
DENISON *      PTSUNNY   46  27  46 S15G21    29.92F
LE MARS *      PTSUNNY   48  25  40 S20G26    29.88F
ORANGE CITY *  PTSUNNY   46  19  34 S14G22    29.88F
SHELDON *      CLOUDY    43  23  45 S20G26    29.89F
SIOUX CITY     MOSUNNY   51  26  37 S21       29.88F
6HR MIN TEMP:  40; 6HR MAX TEMP:  52;

SPENCER        MOSUNNY   42  26  53 SE16      29.95F
6HR MIN TEMP:  33; 6HR MAX TEMP:  43;

STORM LAKE *   MOSUNNY   43  27  52 S18G25    29.94F
$$

IAZ055>058-069>071-079>083-090>094-160100-
   SOUTHWEST IOWA

CITY           SKY/WX    TMP DP  RH WIND       PRES   REMARKS
ATLANTIC *     MOSUNNY   46  27  46 S14       29.97F
AUDUBON *      SUNNY     46  19  34 S12       29.98F
CLARINDA *     SUNNY     50  28  43 S13       30.00F
COUNCIL BLFS * SUNNY     50  30  46 S16G23    29.91F
CRESTON *      CLEAR     46  25  42 S13G20    30.01F
HARLAN  *      MOSUNNY   46  28  49 S15       29.98F
LAMONI         PTCLDY    47  21  35 S10       30.04F
6HR MIN TEMP:  41; 6HR MAX TEMP:  49;

RED OAK *      SUNNY     50  30  46 S17       29.97F
SHENANDOAH *   SUNNY     50  30  46 SE14G21   29.97F
$$

IAZ047>049-059>061-072>074-084-160100-
   CENTRAL IOWA

CITY           SKY/WX    TMP DP  RH WIND       PRES   REMARKS
AMES           CLEAR     42  20  41 S9        30.04F
6HR MIN TEMP:  34; 6HR MAX TEMP:  42;

ANKENY *       CLEAR     45  21  39 S10       30.04F
CHARITON *     CLEAR     46  23  39 S12       30.05S
DES MOINES     PTCLDY    46  20  35 S13       30.04F
6HR MIN TEMP:  38; 6HR MAX TEMP:  47;

GRINNELL*      CLEAR     41  19  42 S8        30.07F
KNOXVILLE *    CLEAR     45  19  36 S10       30.06S
MARSHALLTOWN   CLEAR     40  22  48 S8        30.06F WCI  34
6HR MIN TEMP:  33; 6HR MAX TEMP:  40;

NEWTON *       CLEAR     41  21  45 S7        30.07S
PELLA *        CLEAR     45  21  39 S7        30.08S
PERRY *          N/A     45  25  45 SE12      30.01F
$$

IAZ004>006-015-016-023>025-035-036-160100-
   NORTH CENTRAL IOWA

CITY           SKY/WX    TMP DP  RH WIND       PRES   REMARKS
ALGONA *       CLOUDY    39  23  52 SE14      30.00F WCI  31
CLARION *      MOCLDY    39  23  52 S10       30.03S WCI  32
ESTHERVILLE    PTSUNNY   39  23  52 S18       29.97F WCI  30
6HR MIN TEMP:  31; 6HR MAX TEMP:  41;

FORT DODGE *   CLEAR     43  25  49 S13G20    30.02F
MASON CITY     PTCLDY    37  16  42 S9        30.05F WCI  30
6HR MIN TEMP:  31; 6HR MAX TEMP:  38;

FOREST CITY *  CLEAR     36  19  51 S9        30.02F WCI  29
IOWA FALLS *     N/A     39  21  48 S8        30.06S WCI  34
$$

IAZ007>011-017>019-026>030-037>042-050>054-066-160100-
   NORTHEAST IOWA

CITY           SKY/WX    TMP DP  RH WIND       PRES   REMARKS
CEDAR RAPIDS   CLEAR     39  13  34 SW6       30.09F WCI  35
6HR MIN TEMP:  34; 6HR MAX TEMP:  40;

CHARLES CITY * MOCLDY    36  16  44 SW7       30.08S WCI  30
CLINTON *      CLEAR     37  18  44 W9        30.16R WCI  31
DECORAH *      CLOUDY    36  14  41 VRB5      30.07F WCI  32
DUBUQUE        CLEAR     35  16  45 W6        30.10S WCI  30
6HR MIN TEMP:  31; 6HR MAX TEMP:  37;

MONTICELLO *   CLEAR     37  14  38 SW7       30.11S WCI  32
OELWEIN *      MOCLDY   N/A N/A N/A SW8       30.09S
WATERLOO       CLEAR     37  13  37 SW8       30.08F WCI  31
6HR MIN TEMP:  33; 6HR MAX TEMP:  38;

$$

IAZ064-065-067-068-078-160100-
   EAST CENTRAL IOWA

CITY           SKY/WX    TMP DP  RH WIND       PRES   REMARKS
DAVENPORT      CLEAR     39  14  36 W6        30.13F WCI  35
6HR MIN TEMP:  36; 6HR MAX TEMP:  41;

IOWA CITY      CLEAR     40  15  36 W3        30.13F
6HR MIN TEMP:  36; 6HR MAX TEMP:  41;

MT. PLEASANT * CLEAR     45  19  36 SW6       30.12F
MUSCATINE *    CLEAR     41  14  33 VRB3      30.13F
QUAD CITIES    CLEAR     40   9  28 W7        30.13F
6HR MIN TEMP:  38; 6HR MAX TEMP:  43;

$$

IAZ062-063-075>077-085>089-095>099-160100-
   SOUTHEAST IOWA

CITY           SKY/WX    TMP DP  RH WIND       PRES   REMARKS
BURLINGTON     CLEAR     43  20  39 W6        30.12F
6HR MIN TEMP:  39; 6HR MAX TEMP:  45;

FAIRFIELD *    CLEAR     43  19  39 S8        30.10F
FORT MADISON * CLEAR     45  19  36 W5        30.13S
KEOKUK *       CLEAR     45  18  33 CALM      30.12F
OSKALOOSA *      N/A     44  21  40 S5        30.08F
CENTERVILLE *  CLEAR     45  19  36 S9        30.08F
OTTUMWA        CLEAR     44  20  38 VRB6      30.08F
6HR MIN TEMP:  38; 6HR MAX TEMP:  45;

WASHINGTON *   CLEAR     41  18  38 W6        30.11F
$$

ABBREVIATIONS USED IN REMARKS
   TC - TEMPERATURES IN CELSIUS
  WCI - WIND CHILL INDEX
   HX - HEAT INDEX
  VSB - VISIBILITY
$$




USA.gov is the U.S. government's official web portal to all federal, state and local government web resources and services.